NORTHEAST SUFFOLK  -  Winter Weather Advisory Winter Weather Advisory        NORTHERN NASSAU  -  Winter Weather Advisory Winter Weather Advisory        NORTHWEST SUFFOLK  -  Winter Weather Advisory Winter Weather Advisory        SOUTHEAST SUFFOLK  -  Winter Weather Advisory Winter Weather Advisory        SOUTHERN NASSAU  -  Winter Weather Advisory Winter Weather Advisory        SOUTHWEST SUFFOLK  -  Winter Weather Advisory Winter Weather Advisory      

Active alerts

Northern Nassau
  Details for Northern Nassau Winter Weather Advisory
Southern Nassau
  Details for Southern Nassau Winter Weather Advisory
Northwest Suffolk
  Details for Northwest Suffolk Winter Weather Advisory
Southwest Suffolk
  Details for Southwest Suffolk Winter Weather Advisory
Northeast Suffolk
  Details for Northeast Suffolk Winter Weather Advisory
Southeast Suffolk
  Details for Southeast Suffolk Winter Weather Advisory


WXM80 ListenWXM80 Stop

You find our weather info also at:

UK Metoffice

WeatherCloud

Weather Underground

Northeastern Weather Network

AWEKAS

Citizen Weather Observer Program (CWOP)

HAMweather, WeatherForYou, PWS Weather


Weather Underground History page Text

Daily Summary for May 20, 2017 Units:  Metric    English   Both
« Previous Day
Next Day »
Daily Weekly Monthly Yearly Custom
  High: Low: Average:
Temperature: 18.8 °C 11.2 °C 15.9 °C
Dew Point: 13.7 °C 5.8 °C 9.6 °C
Humidity: 81 % 44 % 67 %
Wind Speed: 15.4 km/h 0 km/h 4.8 km/h
Wind Gust: 24.1 km/h - -
Wind:- - ESE
Pressure: 1026.3 hPa 1016.1 hPa -
Precipitation: 0.25 mm    
Historical Graphs
 
 
Tabular Data for May 20, 2017
Time Temperature Dew Point Pressure Wind Wind Speed Wind Gust Humidity Rainfall Rate (Hourly)
00:01 18.1 °C 13.3 °C 1016.5 hPa North 6 km/h 11.1 km/h 74 % 0 mm
00:06 17.9 °C 13.7 °C 1016.5 hPa North 6.6 km/h 13 km/h 76 % 0 mm
00:11 17.8 °C 13.3 °C 1016.5 hPa NNE 8.7 km/h 14.5 km/h 75 % 0 mm
00:16 17.6 °C 13.3 °C 1016.1 hPa NNE 9.5 km/h 12.9 km/h 76 % 0 mm
00:21 17.4 °C 13.2 °C 1016.5 hPa NNE 10.8 km/h 18.5 km/h 76 % 0 mm
00:26 17.3 °C 13.3 °C 1016.5 hPa NNE 10.3 km/h 16.7 km/h 77 % 0 mm
00:31 17.2 °C 13.2 °C 1016.5 hPa NNE 9.5 km/h 18.5 km/h 77 % 0 mm
00:34 17.2 °C 13.3 °C 1016.5 hPa North 11.9 km/h 19.3 km/h 78 % 0 mm
00:39 17.1 °C 13.1 °C 1016.5 hPa NNE 9.3 km/h 16.7 km/h 77 % 0 mm
00:44 17.1 °C 13.2 °C 1016.5 hPa NNE 14.3 km/h 22.2 km/h 78 % 0 mm
00:49 17.1 °C 13.1 °C 1016.8 hPa NNE 10.1 km/h 20.4 km/h 77 % 0 mm
00:54 17.1 °C 13.1 °C 1016.8 hPa NNE 10.3 km/h 18.5 km/h 77 % 0 mm
00:59 17.1 °C 13.2 °C 1016.5 hPa North 12.6 km/h 18.5 km/h 78 % 0 mm
01:04 17 °C 12.9 °C 1016.5 hPa North 11.4 km/h 18.5 km/h 77 % 0 mm
01:09 17 °C 13.1 °C 1016.5 hPa NNE 12.7 km/h 18.5 km/h 78 % 0 mm
01:14 16.9 °C 13.1 °C 1016.5 hPa NE 10.3 km/h 18.5 km/h 78 % 0 mm
01:19 16.9 °C 13 °C 1016.8 hPa North 10.3 km/h 13 km/h 78 % 0 mm
01:25 16.8 °C 13 °C 1016.8 hPa North 11.7 km/h 14.8 km/h 78 % 0 mm
01:30 16.8 °C 12.9 °C 1016.8 hPa North 9 km/h 16.7 km/h 78 % 0 mm
01:35 16.7 °C 12.8 °C 1016.8 hPa NNE 10.9 km/h 14.8 km/h 78 % 0 mm
01:40 16.6 °C 12.9 °C 1016.8 hPa NNE 14.5 km/h 20.4 km/h 79 % 0 mm
01:45 16.6 °C 12.9 °C 1017.2 hPa NNE 10.1 km/h 18.5 km/h 79 % 0 mm
01:50 16.5 °C 13.1 °C 1017.2 hPa NNE 10.9 km/h 16.7 km/h 80 % 0 mm
01:55 16.4 °C 12.8 °C 1017.2 hPa NNE 6.1 km/h 13 km/h 79 % 0 mm
02:00 16.4 °C 12.9 °C 1017.2 hPa NNE 9.8 km/h 13 km/h 80 % 0 mm
02:05 16.3 °C 12.9 °C 1017.2 hPa NE 7.2 km/h 13 km/h 80 % 0 mm
02:08 16.3 °C 12.9 °C 1017.2 hPa North 9.5 km/h 14.8 km/h 80 % 0 mm
02:13 16.3 °C 12.8 °C 1017.2 hPa North 9.8 km/h 16.7 km/h 80 % 0 mm
02:15 16.3 °C 12.8 °C 1017.2 hPa NNE 8.4 km/h 13 km/h 80 % 0 mm
02:20 16.2 °C 12.8 °C 1017.2 hPa North 10.1 km/h 18.5 km/h 80 % 0 mm
02:21 16.2 °C 12.7 °C 1017.2 hPa North 9.8 km/h 18.5 km/h 80 % 0 mm
02:26 16.1 °C 12.7 °C 1017.2 hPa North 6.3 km/h 14.8 km/h 80 % 0 mm
02:31 16.1 °C 12.6 °C 1017.5 hPa North 9.2 km/h 14.8 km/h 80 % 0 mm
02:36 16 °C 12.6 °C 1017.5 hPa NNW 10.1 km/h 16.7 km/h 80 % 0 mm
02:41 15.9 °C 12.5 °C 1017.8 hPa NNE 10.9 km/h 16.7 km/h 80 % 0 mm
02:46 15.9 °C 12.6 °C 1017.8 hPa ENE 2.7 km/h 5.6 km/h 81 % 0 mm
02:51 15.9 °C 12.6 °C 1017.8 hPa NE 6.3 km/h 9.3 km/h 81 % 0 mm
02:56 15.9 °C 12.4 °C 1017.8 hPa ENE 9.8 km/h 22.2 km/h 80 % 0 mm
03:01 15.8 °C 12.2 °C 1018.2 hPa NE 6.4 km/h 14.8 km/h 79 % 0 mm
03:06 15.8 °C 12.2 °C 1018.2 hPa NE 11.7 km/h 18.5 km/h 79 % 0 mm
03:11 15.8 °C 11.9 °C 1018.2 hPa ENE 14.8 km/h 20.9 km/h 78 % 0 mm
03:16 15.7 °C 11.1 °C 1018.2 hPa ENE 11.4 km/h 18.5 km/h 74 % 0 mm
03:21 15.7 °C 10.5 °C 1018.2 hPa ENE 12.9 km/h 20.4 km/h 71 % 0 mm
03:26 15.8 °C 10.3 °C 1018.2 hPa NNE 7.9 km/h 18.5 km/h 70 % 0 mm
03:31 15.7 °C 10.3 °C 1018.2 hPa NNE 6.6 km/h 9.7 km/h 70 % 0 mm
03:36 15.7 °C 10.3 °C 1018.5 hPa ENE 6.4 km/h 13 km/h 70 % 0 mm
03:41 15.7 °C 10.4 °C 1018.5 hPa NE 4.5 km/h 18.5 km/h 71 % 0 mm
03:46 15.6 °C 10.6 °C 1018.5 hPa NE 3.7 km/h 5.6 km/h 72 % 0 mm
03:51 15.6 °C 10.5 °C 1018.5 hPa NE 5.1 km/h 9.3 km/h 72 % 0 mm
03:56 15.5 °C 9.6 °C 1018.5 hPa East 11.6 km/h 22.2 km/h 68 % 0 mm
04:01 15.4 °C 9.3 °C 1018.8 hPa ENE 13.8 km/h 20.4 km/h 67 % 0 mm
04:06 15.4 °C 9.3 °C 1019.2 hPa ENE 14 km/h 20.4 km/h 67 % 0 mm
04:11 15.4 °C 9.3 °C 1019.2 hPa ENE 10.3 km/h 16.1 km/h 67 % 0 mm
04:16 15.4 °C 8.9 °C 1019.2 hPa ENE 14 km/h 18.5 km/h 65 % 0 mm
04:22 15.4 °C 9.1 °C 1019.2 hPa East 13.2 km/h 20.4 km/h 66 % 0 mm
04:27 15.4 °C 8.9 °C 1019.2 hPa ENE 13.2 km/h 16.7 km/h 65 % 0 mm
04:32 15.4 °C 9.3 °C 1019.2 hPa ESE 8.9 km/h 18.5 km/h 67 % 0 mm
04:37 15.4 °C 9.3 °C 1019.5 hPa ENE 12.1 km/h 18.5 km/h 67 % 0 mm
04:42 15.3 °C 9.2 °C 1019.5 hPa ENE 14.6 km/h 24.1 km/h 67 % 0 mm
04:47 15.3 °C 8.9 °C 1019.5 hPa ENE 10.6 km/h 22.2 km/h 66 % 0 mm
04:52 15.3 °C 9.2 °C 1019.5 hPa ENE 12.6 km/h 22.2 km/h 67 % 0 mm
04:57 15.2 °C 9.1 °C 1019.5 hPa ENE 11.1 km/h 14.8 km/h 67 % 0 mm
05:02 15.2 °C 9.3 °C 1019.5 hPa ENE 12.7 km/h 22.2 km/h 68 % 0 mm
05:07 15.2 °C 9.3 °C 1019.5 hPa NE 10.1 km/h 18.5 km/h 68 % 0 mm
05:12 15.1 °C 9.7 °C 1019.9 hPa ENE 8.4 km/h 13 km/h 70 % 0 mm
05:17 15.1 °C 9.6 °C 1019.5 hPa ENE 9.2 km/h 14.8 km/h 70 % 0 mm
05:22 14.9 °C 9.3 °C 1019.9 hPa ENE 11.6 km/h 18.5 km/h 69 % 0 mm
05:27 14.9 °C 9.2 °C 1019.9 hPa NE 9 km/h 16.7 km/h 69 % 0 mm
05:32 14.8 °C 9.4 °C 1019.9 hPa NE 8.5 km/h 14.8 km/h 70 % 0 mm
05:37 14.8 °C 9.4 °C 1019.9 hPa ENE 7.4 km/h 11.1 km/h 70 % 0 mm
05:42 14.8 °C 9.2 °C 1020.2 hPa ENE 6.1 km/h 18.5 km/h 69 % 0 mm
05:47 14.8 °C 9.3 °C 1020.5 hPa ENE 11.4 km/h 18.5 km/h 70 % 0 mm
05:52 14.7 °C 9.5 °C 1020.5 hPa East 7.7 km/h 22.2 km/h 71 % 0 mm
05:57 14.7 °C 9.5 °C 1020.5 hPa NE 7.7 km/h 14.8 km/h 71 % 0 mm
06:02 14.7 °C 9.3 °C 1020.5 hPa East 7.9 km/h 16.7 km/h 70 % 0 mm
06:07 14.8 °C 9.2 °C 1020.5 hPa ENE 10.5 km/h 12.9 km/h 69 % 0 mm
06:13 14.8 °C 9.3 °C 1020.9 hPa ENE 5.1 km/h 11.1 km/h 70 % 0 mm
06:18 14.8 °C 9.6 °C 1020.9 hPa NE 3.5 km/h 5.6 km/h 71 % 0 mm
06:23 14.8 °C 9.6 °C 1020.9 hPa ENE 4.8 km/h 13 km/h 71 % 0 mm
06:28 14.8 °C 9.4 °C 1021.2 hPa ENE 6.6 km/h 11.3 km/h 70 % 0 mm
06:33 14.8 °C 9.4 °C 1021.6 hPa ENE 4.8 km/h 7.4 km/h 70 % 0 mm
06:38 14.9 °C 9.7 °C 1021.6 hPa NE 4.2 km/h 7.4 km/h 71 % 0 mm
06:43 14.8 °C 9.6 °C 1021.9 hPa NE 5.6 km/h 8 km/h 71 % 0 mm
06:48 14.8 °C 9.3 °C 1022.2 hPa NNE 7.1 km/h 13 km/h 70 % 0 mm
06:53 14.7 °C 9.5 °C 1022.2 hPa NE 5.1 km/h 11.1 km/h 71 % 0 mm
06:58 14.7 °C 9.5 °C 1022.2 hPa NNE 6 km/h 11.3 km/h 71 % 0 mm
07:03 14.7 °C 9.5 °C 1022.2 hPa NNE 4.3 km/h 13 km/h 71 % 0 mm
07:08 14.7 °C 9.7 °C 1022.2 hPa NNE 4.3 km/h 7.4 km/h 72 % 0 mm
07:13 14.7 °C 9.7 °C 1021.9 hPa NE 7.2 km/h 14.8 km/h 72 % 0 mm
07:18 14.7 °C 9.1 °C 1021.9 hPa ENE 8 km/h 14.8 km/h 69 % 0 mm
07:23 14.8 °C 9.6 °C 1021.9 hPa East 7.1 km/h 14.5 km/h 71 % 0 mm
07:24 14.8 °C 9.6 °C 1021.9 hPa NE 9.3 km/h 14.8 km/h 71 % 0 mm
07:29 14.7 °C 9.7 °C 1021.9 hPa NE 10.8 km/h 18.5 km/h 72 % 0 mm
07:34 14.6 °C 9.8 °C 1021.9 hPa ENE 8.7 km/h 18.5 km/h 73 % 0.25 mm
07:39 14.4 °C 9.8 °C 1021.9 hPa ENE 8.5 km/h 16.7 km/h 74 % 0.25 mm
07:44 14.2 °C 10.1 °C 1022.2 hPa NE 8.7 km/h 13 km/h 76 % 0.25 mm
07:49 14.1 °C 9.7 °C 1022.2 hPa ENE 9.5 km/h 16.7 km/h 75 % 0.25 mm
07:54 14.1 °C 10.1 °C 1022.2 hPa NE 9.2 km/h 14.8 km/h 77 % 0.25 mm
07:59 14.1 °C 10.1 °C 1022.2 hPa East 9.3 km/h 13 km/h 77 % 0.25 mm
08:04 14 °C 9.6 °C 1022.2 hPa ENE 7.9 km/h 11.3 km/h 75 % 0.25 mm
08:09 14 °C 9.6 °C 1022.2 hPa ENE 8.4 km/h 14.8 km/h 75 % 0.25 mm
08:14 14.1 °C 9.7 °C 1022.6 hPa ENE 7.4 km/h 12.9 km/h 75 % 0.25 mm
08:19 14.2 °C 9.8 °C 1022.6 hPa ENE 12.1 km/h 16.7 km/h 75 % 0.25 mm
08:24 14.2 °C 9.7 °C 1022.9 hPa ENE 12.1 km/h 20.9 km/h 74 % 0.25 mm
08:29 14.3 °C 9.7 °C 1022.6 hPa ENE 13.5 km/h 18.5 km/h 74 % 0.25 mm
08:34 14.4 °C 9.9 °C 1022.9 hPa ENE 11.7 km/h 16.1 km/h 74 % 0 mm
08:39 14.6 °C 9.8 °C 1022.9 hPa ENE 15.4 km/h 20.9 km/h 73 % 0 mm
08:44 14.6 °C 9.8 °C 1023.2 hPa ENE 11.6 km/h 16.7 km/h 73 % 0 mm
08:49 14.7 °C 9.9 °C 1022.9 hPa ENE 5.6 km/h 14.8 km/h 73 % 0 mm
08:54 14.8 °C 10 °C 1022.9 hPa ENE 11.3 km/h 14.8 km/h 73 % 0 mm
08:59 14.8 °C 9.8 °C 1022.9 hPa ENE 8 km/h 13 km/h 72 % 0 mm
09:04 14.8 °C 9.6 °C 1022.9 hPa ENE 10.9 km/h 18.5 km/h 71 % 0 mm
09:09 14.9 °C 9.9 °C 1023.2 hPa ENE 9.3 km/h 14.8 km/h 72 % 0 mm
09:14 14.9 °C 9.9 °C 1023.2 hPa ENE 7.6 km/h 12.9 km/h 72 % 0 mm
09:19 15.1 °C 10.1 °C 1023.6 hPa ENE 6.3 km/h 11.1 km/h 72 % 0 mm
09:24 15.2 °C 9.9 °C 1023.2 hPa ENE 7.6 km/h 13 km/h 71 % 0 mm
09:29 15.3 °C 10.1 °C 1023.2 hPa ENE 10.8 km/h 16.7 km/h 71 % 0 mm
09:34 15.4 °C 9.9 °C 1023.6 hPa ENE 9.7 km/h 16.7 km/h 70 % 0 mm
09:39 15.6 °C 10.1 °C 1023.9 hPa East 10.6 km/h 13 km/h 70 % 0 mm
09:44 15.7 °C 10.1 °C 1023.9 hPa ENE 9.8 km/h 18.5 km/h 69 % 0 mm
09:49 15.8 °C 9.9 °C 1023.9 hPa ENE 9.8 km/h 16.7 km/h 68 % 0 mm
09:54 16 °C 10.1 °C 1023.9 hPa ENE 8.7 km/h 16.7 km/h 68 % 0 mm
10:00 16.1 °C 9.8 °C 1023.9 hPa NE 11.7 km/h 13 km/h 66 % 0 mm
10:05 16.1 °C 9.5 °C 1023.9 hPa East 7.9 km/h 16.7 km/h 65 % 0 mm
10:10 16 °C 9.9 °C 1023.9 hPa ENE 11.9 km/h 18.5 km/h 67 % 0 mm
10:15 16.1 °C 9.9 °C 1023.9 hPa ENE 8.7 km/h 13 km/h 67 % 0 mm
10:20 16.3 °C 10.6 °C 1023.9 hPa East 6.4 km/h 14.8 km/h 69 % 0 mm
10:25 16.8 °C 10.6 °C 1024.3 hPa East 11.1 km/h 18.5 km/h 67 % 0 mm
10:30 16.8 °C 10.6 °C 1024.3 hPa NE 9.8 km/h 18.5 km/h 67 % 0 mm
10:35 16.7 °C 10.5 °C 1024.3 hPa ENE 10 km/h 18.5 km/h 67 % 0 mm
10:40 16.6 °C 10.4 °C 1024.3 hPa ENE 8 km/h 13 km/h 67 % 0 mm
10:45 16.4 °C 10.7 °C 1024.3 hPa ENE 5.1 km/h 7.4 km/h 69 % 0 mm
10:50 16.4 °C 10.3 °C 1024.3 hPa ENE 9 km/h 14.5 km/h 67 % 0 mm
10:53 16.6 °C 10.6 °C 1024.3 hPa ENE 7.6 km/h 16.7 km/h 68 % 0 mm
10:58 16.9 °C 10.1 °C 1024.3 hPa East 7.6 km/h 13 km/h 64 % 0 mm
11:03 16.9 °C 9.8 °C 1024.3 hPa ENE 8.7 km/h 14.8 km/h 63 % 0 mm
11:08 17 °C 9.7 °C 1024.3 hPa ENE 7.2 km/h 13 km/h 62 % 0 mm
11:13 17.1 °C 9.7 °C 1024.3 hPa ENE 7.1 km/h 11.1 km/h 62 % 0 mm
11:18 17.1 °C 10.2 °C 1024.3 hPa ENE 3.7 km/h 5.6 km/h 64 % 0 mm
11:23 16.9 °C 9.1 °C 1024.3 hPa ENE 3.9 km/h 11.1 km/h 60 % 0 mm
11:28 16.7 °C 8.9 °C 1024.3 hPa ENE 3.1 km/h 5.6 km/h 60 % 0 mm
11:33 16.6 °C 9 °C 1024.6 hPa ENE 4.3 km/h 7.4 km/h 61 % 0 mm
11:38 16.3 °C 8.8 °C 1024.6 hPa ENE 1.9 km/h 3.7 km/h 61 % 0 mm
11:43 16.3 °C 9 °C 1024.6 hPa ENE 1.9 km/h 5.6 km/h 62 % 0 mm
11:48 16.3 °C 9.5 °C 1024.3 hPa ENE 1.9 km/h 4.8 km/h 64 % 0 mm
11:53 16.4 °C 9.1 °C 1024.6 hPa ENE 2.4 km/h 5.6 km/h 62 % 0 mm
11:58 16.4 °C 9.4 °C 1024.3 hPa ENE 2.1 km/h 3.7 km/h 63 % 0 mm
12:03 16.6 °C 9 °C 1024.3 hPa ENE 1.9 km/h 5.6 km/h 61 % 0 mm
12:08 16.6 °C 9.6 °C 1024.3 hPa ENE 1 km/h 3.7 km/h 63 % 0 mm
12:13 16.7 °C 9.3 °C 1024.3 hPa ENE 1.4 km/h 3.7 km/h 62 % 0 mm
12:18 16.7 °C 9.1 °C 1024.3 hPa ENE 0.8 km/h 3.7 km/h 61 % 0 mm
12:23 16.7 °C 9.3 °C 1024.6 hPa ENE 1.9 km/h 3.7 km/h 62 % 0 mm
12:28 16.6 °C 9.1 °C 1024.6 hPa ENE 1.3 km/h 5.6 km/h 61 % 0 mm
12:33 16.6 °C 9.6 °C 1024.6 hPa ENE 1 km/h 1.9 km/h 63 % 0 mm
12:38 16.6 °C 9.3 °C 1024.3 hPa ENE 2.6 km/h 7.4 km/h 62 % 0 mm
12:43 16.6 °C 9.3 °C 1024.6 hPa ENE 2.4 km/h 5.6 km/h 62 % 0 mm
12:48 16.6 °C 8.8 °C 1024.6 hPa NE 4.2 km/h 7.4 km/h 60 % 0 mm
12:53 16.5 °C 9.2 °C 1024.6 hPa NE 1.6 km/h 5.6 km/h 62 % 0 mm
12:58 16.5 °C 8.7 °C 1024.6 hPa ENE 2.1 km/h 5.6 km/h 60 % 0 mm
13:03 16.5 °C 9.7 °C 1024.6 hPa ENE 0.5 km/h 1.6 km/h 64 % 0 mm
13:08 16.5 °C 9.2 °C 1024.6 hPa ENE 2.4 km/h 5.6 km/h 62 % 0 mm
13:13 16.6 °C 9.7 °C 1024.6 hPa ENE 0.2 km/h 1.9 km/h 64 % 0 mm
13:18 16.5 °C 9.4 °C 1024.6 hPa Calm   1.9 km/h 63 % 0 mm
13:24 16.6 °C 9.5 °C 1024.6 hPa NE 0.3 km/h 1.6 km/h 63 % 0 mm
13:29 16.6 °C 9.6 °C 1024.6 hPa Calm   1.9 km/h 63 % 0 mm
13:34 16.7 °C 9.6 °C 1024.3 hPa Calm   1.9 km/h 63 % 0 mm
13:39 16.7 °C 9.2 °C 1024.3 hPa Calm   5.6 km/h 61 % 0 mm
13:44 16.8 °C 9.5 °C 1024.6 hPa SSE 0.8 km/h 7.4 km/h 62 % 0 mm
13:49 17 °C 9.9 °C 1024.6 hPa SSE 0.2 km/h 1.9 km/h 63 % 0 mm
13:54 17.1 °C 8.7 °C 1024.6 hPa SSE 0.8 km/h 3.7 km/h 58 % 0 mm
13:59 17.1 °C 8.5 °C 1024.3 hPa Calm   1.9 km/h 57 % 0 mm
14:04 17.2 °C 9.1 °C 1024.3 hPa SSE 0.5 km/h 3.2 km/h 59 % 0 mm
14:09 17.2 °C 8.1 °C 1024.3 hPa SSE 0.3 km/h 1.9 km/h 55 % 0 mm
14:14 17.2 °C 8.1 °C 1024.6 hPa Calm   1.9 km/h 55 % 0 mm
14:19 17.2 °C 7.8 °C 1024.6 hPa SE 2.6 km/h 7.4 km/h 54 % 0 mm
14:24 17.2 °C 7.8 °C 1024.6 hPa SE 0.2 km/h 1.9 km/h 54 % 0 mm
14:29 17.3 °C 8.4 °C 1024.3 hPa Calm   1.9 km/h 56 % 0 mm
14:34 17.3 °C 8.4 °C 1024.6 hPa Calm   1.9 km/h 56 % 0 mm
14:39 17.4 °C 8.3 °C 1024.6 hPa Calm   1.9 km/h 55 % 0 mm
14:44 17.4 °C 8.3 °C 1024.6 hPa SE 1.1 km/h 3.2 km/h 55 % 0 mm
14:49 17.5 °C 8.1 °C 1024.6 hPa Calm   3.7 km/h 54 % 0 mm
14:54 17.7 °C 8.5 °C 1024.6 hPa SE 4 km/h 5.6 km/h 55 % 0 mm
14:59 17.8 °C 8.3 °C 1024.6 hPa Calm     54 % 0 mm
15:04 17.9 °C 8.5 °C 1024.6 hPa East 0.6 km/h 1.9 km/h 54 % 0 mm
15:09 18 °C 8.6 °C 1024.6 hPa ENE 1.3 km/h 4.8 km/h 54 % 0 mm
15:14 18 °C 9.1 °C 1024.6 hPa Calm   1.6 km/h 56 % 0 mm
15:19 18.1 °C 8.6 °C 1024.6 hPa ENE 0.6 km/h 3.7 km/h 54 % 0 mm
15:24 18 °C 8.6 °C 1024.6 hPa ENE 0.5 km/h 1.6 km/h 54 % 0 mm
15:29 18 °C 7.7 °C 1024.3 hPa ENE 0.2 km/h 1.9 km/h 51 % 0 mm
15:34 18.1 °C 9.1 °C 1024.6 hPa Calm     56 % 0 mm
15:39 18.1 °C 7.2 °C 1024.6 hPa Calm     49 % 0 mm
15:44 18.2 °C 7.3 °C 1024.6 hPa Calm     49 % 0 mm
15:49 18.2 °C 7.3 °C 1024.3 hPa ESE 0.2 km/h 3.7 km/h 49 % 0 mm
15:54 18.2 °C 7.9 °C 1024.3 hPa Calm   1.9 km/h 51 % 0 mm
15:59 18.3 °C 7.7 °C 1024.3 hPa Calm     50 % 0 mm
16:04 18.3 °C 5.8 °C 1024.3 hPa ESE 2.3 km/h 5.6 km/h 44 % 0 mm
16:09 18.4 °C 7.5 °C 1024.3 hPa Calm     49 % 0 mm
16:14 18.4 °C 6.6 °C 1024.3 hPa Calm     46 % 0 mm
16:19 18.5 °C 6.9 °C 1024.3 hPa ESE 1.3 km/h 3.7 km/h 47 % 0 mm
16:24 18.6 °C 7.6 °C 1024.3 hPa Calm     49 % 0 mm
16:29 18.5 °C 7.6 °C 1024.3 hPa SSE 1 km/h 3.7 km/h 49 % 0 mm
16:34 18.5 °C 8.2 °C 1024.3 hPa Calm     51 % 0 mm
16:39 18.5 °C 7.6 °C 1024.3 hPa SW 0.2 km/h 1.9 km/h 49 % 0 mm
16:44 18.6 °C 7.9 °C 1024.3 hPa SW 0.2 km/h 1.9 km/h 50 % 0 mm
16:49 18.6 °C 8.8 °C 1024.6 hPa Calm   1.9 km/h 53 % 0 mm
16:54 18.6 °C 9.1 °C 1024.3 hPa SW 1.3 km/h 3.7 km/h 54 % 0 mm
16:59 18.6 °C 9.1 °C 1024.3 hPa West 4 km/h 5.6 km/h 54 % 0 mm
17:04 18.7 °C 8.3 °C 1024.3 hPa West 0.8 km/h 3.7 km/h 51 % 0 mm
17:09 18.7 °C 9.2 °C 1024.3 hPa West 0.6 km/h 5.6 km/h 54 % 0 mm
17:14 18.8 °C 9.3 °C 1024.3 hPa West 2.3 km/h 6.4 km/h 54 % 0 mm
17:19 18.8 °C 9 °C 1024.3 hPa West 1.4 km/h 5.6 km/h 53 % 0 mm
17:24 18.8 °C 9 °C 1024.3 hPa WNW 2.4 km/h 5.6 km/h 53 % 0 mm
17:30 18.8 °C 9 °C 1024.3 hPa WNW 1 km/h 5.6 km/h 53 % 0 mm
17:35 18.8 °C 9.3 °C 1024.3 hPa WNW 1.8 km/h 3.7 km/h 54 % 0 mm
17:40 18.8 °C 9.3 °C 1024.3 hPa WNW 1.3 km/h 5.6 km/h 54 % 0 mm
17:45 18.8 °C 9.3 °C 1024.3 hPa WNW 0.8 km/h 3.7 km/h 54 % 0 mm
17:50 18.8 °C 9.3 °C 1024.3 hPa WNW 1.3 km/h 3.7 km/h 54 % 0 mm
17:55 18.8 °C 9.6 °C 1024.3 hPa WSW 4.7 km/h 6.4 km/h 55 % 0 mm
18:00 18.8 °C 8.7 °C 1023.9 hPa Calm     52 % 0 mm
18:05 18.8 °C 9 °C 1023.9 hPa SW 2.7 km/h 5.6 km/h 53 % 0 mm
18:10 18.7 °C 9.2 °C 1023.9 hPa WNW 3.4 km/h 5.6 km/h 54 % 0 mm
18:15 18.7 °C 8.6 °C 1023.9 hPa WSW 2.1 km/h 5.6 km/h 52 % 0 mm
18:20 18.6 °C 9.1 °C 1023.9 hPa WSW 1.1 km/h 3.7 km/h 54 % 0 mm
18:25 18.6 °C 9.3 °C 1023.9 hPa Calm     55 % 0 mm
18:30 18.5 °C 9.6 °C 1023.9 hPa Calm   1.6 km/h 56 % 0 mm
18:35 18.4 °C 9.7 °C 1023.9 hPa WSW 0.3 km/h 1.9 km/h 57 % 0 mm
18:40 18.3 °C 9.9 °C 1023.9 hPa SW 1 km/h 4.8 km/h 58 % 0 mm
18:45 18.1 °C 9.4 °C 1023.9 hPa Calm   1.9 km/h 57 % 0 mm
18:50 18 °C 9.6 °C 1023.9 hPa SW 2.3 km/h 5.6 km/h 58 % 0 mm
18:55 17.9 °C 9.5 °C 1024.3 hPa SSE 2.3 km/h 4.8 km/h 58 % 0 mm
19:00 17.7 °C 9.3 °C 1024.3 hPa SW 0.2 km/h 5.6 km/h 58 % 0 mm
19:06 17.6 °C 8.9 °C 1024.3 hPa Calm   6.4 km/h 57 % 0 mm
19:11 17.4 °C 9.3 °C 1024.3 hPa SSW 0.5 km/h 3.7 km/h 59 % 0 mm
19:16 17.3 °C 9.2 °C 1024.3 hPa Calm   3.2 km/h 59 % 0 mm
19:21 17.2 °C 9.3 °C 1024.3 hPa SSW 1.6 km/h 6.4 km/h 60 % 0 mm
19:26 16.9 °C 9.2 °C 1024.3 hPa SW 1.6 km/h 6.4 km/h 60 % 0 mm
19:31 16.8 °C 9 °C 1024.3 hPa Calm   4.8 km/h 60 % 0 mm
19:36 16.6 °C 8.8 °C 1024.3 hPa Calm   6.4 km/h 60 % 0 mm
19:41 16.4 °C 8.9 °C 1024.3 hPa Calm   3.2 km/h 61 % 0 mm
19:46 16.3 °C 8.7 °C 1024.3 hPa Calm   4.8 km/h 61 % 0 mm
19:51 16.1 °C 8.8 °C 1024.3 hPa Calm   1.6 km/h 62 % 0 mm
19:56 15.9 °C 8.9 °C 1024.3 hPa Calm   8 km/h 63 % 0 mm
20:01 15.7 °C 8.7 °C 1024.3 hPa Calm   1.9 km/h 63 % 0 mm
20:06 15.5 °C 8.5 °C 1024.3 hPa WSW 0.3 km/h 1.9 km/h 63 % 0 mm
20:11 15.3 °C 8.6 °C 1024.6 hPa Calm   1.9 km/h 64 % 0 mm
20:16 15.2 °C 8.6 °C 1024.6 hPa Calm   1.9 km/h 65 % 0 mm
20:21 14.9 °C 8.4 °C 1024.6 hPa Calm     65 % 0 mm
20:26 14.8 °C 8.5 °C 1024.6 hPa Calm   3.7 km/h 66 % 0 mm
20:31 14.6 °C 8.3 °C 1024.6 hPa Calm   1.9 km/h 66 % 0 mm
20:36 14.4 °C 8.3 °C 1024.6 hPa SW 1 km/h 3.7 km/h 67 % 0 mm
20:41 14.2 °C 8.2 °C 1024.6 hPa SW 0.8 km/h 3.7 km/h 67 % 0 mm
20:46 14.1 °C 8.2 °C 1024.6 hPa SW 0.2 km/h 1.9 km/h 68 % 0 mm
20:51 13.9 °C 8.1 °C 1024.6 hPa SW 0.5 km/h 1.9 km/h 68 % 0 mm
20:56 13.8 °C 7.9 °C 1024.9 hPa SW 0.5 km/h 3.7 km/h 68 % 0 mm
21:01 13.6 °C 8 °C 1024.9 hPa SW 0.2 km/h   69 % 0 mm
21:06 13.6 °C 8 °C 1024.9 hPa SW 0.2 km/h 1.9 km/h 69 % 0 mm
21:12 13.4 °C 7.9 °C 1024.9 hPa SW 0.5 km/h 3.7 km/h 69 % 0 mm
21:17 13.3 °C 7.9 °C 1024.9 hPa Calm   5.6 km/h 70 % 0 mm
21:22 13.2 °C 7.9 °C 1024.9 hPa Calm   1.9 km/h 70 % 0 mm
21:27 13.2 °C 7.8 °C 1024.9 hPa SSW 0.3 km/h 1.9 km/h 70 % 0 mm
21:32 13 °C 7.9 °C 1024.9 hPa SE 0.2 km/h 1.9 km/h 71 % 0 mm
21:37 12.9 °C 7.8 °C 1024.9 hPa Calm   1.9 km/h 71 % 0 mm
21:42 12.8 °C 7.7 °C 1025.3 hPa Calm     71 % 0 mm
21:47 12.7 °C 7.8 °C 1025.3 hPa Calm     72 % 0 mm
21:52 12.7 °C 7.7 °C 1025.3 hPa Calm   1.9 km/h 72 % 0 mm
21:57 12.6 °C 7.8 °C 1025.3 hPa ESE 0.5 km/h 1.9 km/h 73 % 0 mm
22:02 12.5 °C 7.8 °C 1025.3 hPa SE 0.3 km/h 1.9 km/h 73 % 0 mm
22:07 12.4 °C 7.7 °C 1025.3 hPa SE 0.5 km/h 7.4 km/h 73 % 0 mm
22:12 12.3 °C 7.6 °C 1025.3 hPa SE 0.3 km/h 1.9 km/h 73 % 0 mm
22:17 12.3 °C 7.8 °C 1025.3 hPa SE 0.6 km/h 1.9 km/h 74 % 0 mm
22:22 12.3 °C 7.8 °C 1025.3 hPa Calm   1.9 km/h 74 % 0 mm
22:27 12.2 °C 7.9 °C 1025.3 hPa SE 0.3 km/h 1.9 km/h 75 % 0 mm
22:32 12.2 °C 7.9 °C 1025.3 hPa Calm     75 % 0 mm
22:37 12.1 °C 8 °C 1025.3 hPa SSE 0.2 km/h 9.3 km/h 76 % 0 mm
22:42 12.1 °C 7.9 °C 1025.3 hPa Calm     76 % 0 mm
22:47 12 °C 7.9 °C 1025.3 hPa SSE 0.3 km/h 3.7 km/h 76 % 0 mm
22:52 11.9 °C 7.8 °C 1025.3 hPa Calm     76 % 0 mm
22:57 11.9 °C 7.8 °C 1025.6 hPa SSW 0.2 km/h   76 % 0 mm
23:02 11.9 °C 7.8 °C 1025.6 hPa West 0.3 km/h 3.7 km/h 76 % 0 mm
23:07 11.8 °C 7.7 °C 1025.6 hPa West 0.8 km/h 3.7 km/h 76 % 0 mm
23:12 11.8 °C 7.7 °C 1026 hPa West 0.3 km/h 3.2 km/h 76 % 0 mm
23:17 11.7 °C 7.8 °C 1025.6 hPa West 1 km/h 5.6 km/h 77 % 0 mm
23:22 11.6 °C 7.7 °C 1026 hPa Calm     77 % 0 mm
23:28 11.6 °C 7.7 °C 1026 hPa West 1.8 km/h 1.9 km/h 77 % 0 mm
23:33 11.5 °C 7.8 °C 1026 hPa West 1.6 km/h 3.7 km/h 78 % 0 mm
23:38 11.4 °C 7.7 °C 1026.3 hPa West 0.3 km/h 1.9 km/h 78 % 0 mm
23:43 11.4 °C 7.9 °C 1026.3 hPa West 2.1 km/h 3.7 km/h 79 % 0 mm
23:48 11.3 °C 7.8 °C 1026.3 hPa West 0.2 km/h 1.9 km/h 79 % 0 mm
23:53 11.3 °C 7.8 °C 1026 hPa West 0.6 km/h   79 % 0 mm
23:58 11.2 °C 7.7 °C 1026.3 hPa Calm     79 % 0 mm
Crab Meadow Weather
Compliments of Weather Underground - 3 mb

Script developed by  Jim McMurry - jmcmurry@mwt.net Adapted for the template by  Wim van der Kuil - Leuven-Template.eu

Extremes: The greatest annual rainfall in the United States was 184.56 inches at Wynooches, Oxbow, Washington in 1931.